Time,TemperatureF,DewpointF,PressureIn,WindDirection,WindDirectionDegrees,WindSpeedMPH,WindSpeedGustMPH,Humidity,HourlyPrecipIn,Conditions,Clouds,dailyrainin,SoftwareType,DateUTC
2013-05-23 00:03:00,78.0,73.0,29.97,SW,214,0.0,1.0,85,0.00,,,0.41,,2013-05-23 04:03:00,
2013-05-23 00:12:00,78.0,73.0,29.97,SW,214,0.0,1.0,85,0.00,,,0.41,,2013-05-23 04:12:00,
2013-05-23 00:22:00,77.0,72.0,29.97,SSW,200,0.0,1.0,86,0.00,,,0.41,,2013-05-23 04:22:00,
2013-05-23 00:33:00,77.0,73.0,29.96,SSW,204,0.0,0.0,87,0.00,,,0.41,,2013-05-23 04:33:00,
2013-05-23 00:43:00,77.0,73.0,29.96,SSW,204,0.0,0.0,87,0.00,,,0.41,,2013-05-23 04:43:00,
2013-05-23 00:52:00,77.0,73.0,29.96,SSW,203,0.0,0.0,88,0.00,,,0.41,,2013-05-23 04:52:00,
2013-05-23 01:02:00,77.0,73.0,29.96,SSW,208,0.0,1.0,87,0.00,,,0.41,,2013-05-23 05:02:00,
2013-05-23 01:11:00,77.0,73.0,29.96,SSW,208,0.0,1.0,87,0.00,,,0.41,,2013-05-23 05:11:00,
2013-05-23 01:22:00,77.0,73.0,29.96,SW,232,0.0,1.0,88,0.00,,,0.40,,2013-05-23 05:22:00,
2013-05-23 01:32:00,77.0,73.0,29.95,SW,214,0.0,3.0,88,0.00,,,0.40,,2013-05-23 05:32:00,
2013-05-23 01:42:00,77.0,74.0,29.95,SW,216,1.0,4.0,89,0.00,,,0.40,,2013-05-23 05:42:00,
2013-05-23 01:52:00,77.0,74.0,29.95,SW,216,1.0,4.0,89,0.00,,,0.40,,2013-05-23 05:52:00,
2013-05-23 02:02:00,77.0,74.0,29.95,SW,232,0.0,2.0,90,0.00,,,0.40,,2013-05-23 06:02:00,
2013-05-23 02:12:00,77.0,74.0,29.95,SW,233,0.0,3.0,90,0.00,,,0.34,,2013-05-23 06:12:00,
2013-05-23 02:21:00,77.0,74.0,29.95,SW,233,0.0,3.0,90,0.00,,,0.34,,2013-05-23 06:21:00,
2013-05-23 02:32:00,77.0,74.0,29.95,SW,219,0.0,1.0,90,0.00,,,0.34,,2013-05-23 06:32:00,
2013-05-23 02:42:00,77.0,74.0,29.95,SW,219,0.0,1.0,90,0.00,,,0.34,,2013-05-23 06:42:00,
2013-05-23 02:52:00,76.0,73.0,29.94,SW,225,0.0,1.0,90,0.00,,,0.34,,2013-05-23 06:52:00,
2013-05-23 03:02:00,76.0,73.0,29.94,SSW,204,0.0,2.0,91,0.00,,,0.34,,2013-05-23 07:02:00,
2013-05-23 03:11:00,76.0,73.0,29.94,SSW,204,0.0,2.0,91,0.00,,,0.34,,2013-05-23 07:11:00,
2013-05-23 03:21:00,76.0,73.0,29.94,SW,226,0.0,1.0,91,0.00,,,0.30,,2013-05-23 07:21:00,
2013-05-23 03:32:00,75.0,72.0,29.94,SW,221,0.0,2.0,91,0.00,,,0.30,,2013-05-23 07:32:00,
2013-05-23 03:42:00,75.0,72.0,29.94,SW,223,0.0,1.0,91,0.00,,,0.30,,2013-05-23 07:42:00,
2013-05-23 03:59:00,75.0,72.0,29.94,SW,223,0.0,1.0,91,0.00,,,0.30,,2013-05-23 07:59:00,
2013-05-23 04:11:00,75.0,72.0,29.94,WSW,254,1.0,2.0,91,0.00,,,0.30,,2013-05-23 08:11:00,
2013-05-23 04:22:00,76.0,73.0,29.94,SW,226,0.0,2.0,91,0.00,,,0.27,,2013-05-23 08:22:00,
2013-05-23 04:32:00,76.0,74.0,29.94,West,263,0.0,2.0,92,0.00,,,0.27,,2013-05-23 08:32:00,
2013-05-23 04:42:00,76.0,74.0,29.94,West,263,0.0,2.0,92,0.00,,,0.27,,2013-05-23 08:42:00,
2013-05-23 04:52:00,76.0,73.0,29.95,West,267,0.0,1.0,91,0.00,,,0.27,,2013-05-23 08:52:00,
2013-05-23 05:02:00,76.0,73.0,29.95,SW,224,0.0,1.0,91,0.00,,,0.27,,2013-05-23 09:02:00,
2013-05-23 05:11:00,76.0,73.0,29.95,SW,224,0.0,1.0,91,0.00,,,0.27,,2013-05-23 09:11:00,
2013-05-23 05:22:00,76.0,74.0,29.95,WSW,252,0.0,3.0,92,0.00,,,0.27,,2013-05-23 09:22:00,
2013-05-23 05:33:00,76.0,73.0,29.96,WSW,255,0.0,0.0,91,0.00,,,0.27,,2013-05-23 09:33:00,
2013-05-23 05:42:00,76.0,73.0,29.96,WSW,255,0.0,0.0,91,0.00,,,0.27,,2013-05-23 09:42:00,
2013-05-23 05:53:00,75.0,73.0,29.96,SW,235,0.0,0.0,92,0.00,,,0.27,,2013-05-23 09:53:00,
2013-05-23 06:03:00,74.0,72.0,29.96,SW,235,0.0,0.0,93,0.00,,,0.27,,2013-05-23 10:03:00,
2013-05-23 06:12:00,74.0,72.0,29.96,SW,235,0.0,0.0,93,0.00,,,0.27,,2013-05-23 10:12:00,
2013-05-23 06:22:00,74.0,72.0,29.96,SW,234,0.0,0.0,93,0.00,,,0.27,,2013-05-23 10:22:00,
2013-05-23 06:32:00,74.0,72.0,29.97,SW,235,0.0,0.0,94,0.00,,,0.26,,2013-05-23 10:32:00,
2013-05-23 06:42:00,74.0,72.0,29.97,SW,235,0.0,0.0,94,0.00,,,0.26,,2013-05-23 10:42:00,
2013-05-23 06:52:00,74.0,72.0,29.97,SW,235,0.0,0.0,95,0.00,,,0.26,,2013-05-23 10:52:00,
2013-05-23 07:02:00,74.0,72.0,29.98,SW,235,0.0,0.0,95,0.00,,,0.26,,2013-05-23 11:02:00,
2013-05-23 07:11:00,74.0,72.0,29.98,SW,235,0.0,0.0,95,0.00,,,0.26,,2013-05-23 11:11:00,
2013-05-23 07:22:00,74.0,72.0,29.98,SW,235,0.0,0.0,95,0.00,,,0.26,,2013-05-23 11:22:00,
2013-05-23 07:32:00,75.0,73.0,30.00,SW,236,0.0,0.0,95,0.00,,,0.07,,2013-05-23 11:32:00,
2013-05-23 07:42:00,75.0,73.0,30.00,SW,236,0.0,0.0,95,0.00,,,0.07,,2013-05-23 11:42:00,
2013-05-23 07:52:00,76.0,74.0,30.00,SW,236,0.0,0.0,95,0.00,,,0.07,,2013-05-23 11:52:00,
2013-05-23 08:01:00,77.0,74.0,30.01,SW,233,0.0,2.0,92,0.00,,,0.07,,2013-05-23 12:01:00,
2013-05-23 08:12:00,77.0,74.0,30.01,SW,233,0.0,2.0,92,0.00,,,0.07,,2013-05-23 12:12:00,
2013-05-23 08:21:00,78.0,75.0,30.01,WNW,290,2.0,4.0,90,0.00,,,0.07,,2013-05-23 12:21:00,
2013-05-23 08:32:00,79.0,75.0,30.02,West,274,1.0,4.0,88,0.00,,,0.07,,2013-05-23 12:32:00,
2013-05-23 08:42:00,79.0,75.0,30.02,West,274,1.0,4.0,88,0.00,,,0.07,,2013-05-23 12:42:00,
2013-05-23 08:52:00,80.0,75.0,30.02,West,271,1.0,3.0,86,0.00,,,0.07,,2013-05-23 12:52:00,
2013-05-23 09:01:00,81.0,76.0,30.02,WSW,255,0.0,4.0,85,0.00,,,0.07,,2013-05-23 13:01:00,
2013-05-23 09:11:00,81.0,76.0,30.02,WSW,255,0.0,4.0,85,0.00,,,0.07,,2013-05-23 13:11:00,
2013-05-23 09:22:00,81.0,76.0,30.02,West,276,1.0,7.0,84,0.00,,,0.07,,2013-05-23 13:22:00,
2013-05-23 09:32:00,81.0,76.0,30.02,WSW,256,2.0,7.0,84,0.00,,,0.07,,2013-05-23 13:32:00,
2013-05-23 09:42:00,81.0,76.0,30.02,WSW,256,2.0,7.0,84,0.00,,,0.07,,2013-05-23 13:42:00,
2013-05-23 09:52:00,82.0,76.0,30.02,West,277,2.0,8.0,83,0.00,,,0.07,,2013-05-23 13:52:00,
2013-05-23 10:02:00,82.0,76.0,30.02,NNW,329,2.0,7.0,83,0.00,,,0.07,,2013-05-23 14:02:00,
2013-05-23 10:11:00,82.0,76.0,30.02,NNW,329,2.0,7.0,83,0.00,,,0.07,,2013-05-23 14:11:00,
2013-05-23 10:21:00,82.0,76.0,30.02,WNW,283,3.0,7.0,81,0.00,,,0.07,,2013-05-23 14:21:00,
2013-05-23 10:32:00,83.0,77.0,30.02,NW,323,1.0,6.0,81,0.00,,,0.07,,2013-05-23 14:32:00,
2013-05-23 10:42:00,83.0,77.0,30.02,NW,323,1.0,6.0,81,0.00,,,0.07,,2013-05-23 14:42:00,
2013-05-23 10:52:00,84.0,76.0,30.03,WNW,291,3.0,5.0,78,0.00,,,0.07,,2013-05-23 14:52:00,
2013-05-23 11:01:00,83.0,75.0,30.02,WSW,253,4.0,9.0,78,0.00,,,0.07,,2013-05-23 15:01:00,
2013-05-23 11:11:00,83.0,75.0,30.02,WSW,253,4.0,9.0,78,0.00,,,0.07,,2013-05-23 15:11:00,
2013-05-23 11:22:00,84.0,76.0,30.02,West,263,4.0,11.0,76,0.00,,,0.07,,2013-05-23 15:22:00,
2013-05-23 11:33:00,84.0,76.0,30.02,West,275,7.0,10.0,76,0.00,,,0.07,,2013-05-23 15:33:00,
2013-05-23 11:42:00,84.0,76.0,30.02,West,275,7.0,10.0,76,0.00,,,0.07,,2013-05-23 15:42:00,
2013-05-23 11:53:00,84.0,74.0,30.03,WNW,285,4.0,9.0,73,0.00,,,0.07,,2013-05-23 15:53:00,
2013-05-23 12:03:00,85.0,74.0,30.03,West,274,6.0,11.0,70,0.00,,,0.07,,2013-05-23 16:03:00,
2013-05-23 12:12:00,85.0,74.0,30.03,West,274,6.0,11.0,70,0.00,,,0.07,,2013-05-23 16:12:00,
2013-05-23 12:23:00,86.0,75.0,30.03,SW,231,1.0,9.0,70,0.00,,,0.07,,2013-05-23 16:23:00,
2013-05-23 12:33:00,86.0,74.0,30.03,WNW,285,3.0,11.0,67,0.00,,,0.04,,2013-05-23 16:33:00,
2013-05-23 12:42:00,86.0,74.0,30.03,WNW,285,3.0,11.0,67,0.00,,,0.04,,2013-05-23 16:42:00,
2013-05-23 12:52:00,87.0,73.0,30.02,West,269,3.0,12.0,63,0.00,,,0.04,,2013-05-23 16:52:00,
2013-05-23 13:03:00,87.0,72.0,30.02,West,277,2.0,13.0,61,0.00,,,0.04,,2013-05-23 17:03:00,
2013-05-23 13:11:00,87.0,72.0,30.02,West,277,2.0,13.0,61,0.00,,,0.04,,2013-05-23 17:11:00,
2013-05-23 13:23:00,87.0,70.0,30.01,West,270,7.0,11.0,57,0.00,,,0.04,,2013-05-23 17:23:00,
2013-05-23 13:33:00,88.0,72.0,30.01,NNW,327,2.0,6.0,60,0.00,,,0.02,,2013-05-23 17:33:00,
2013-05-23 13:43:00,88.0,72.0,30.01,NNW,327,2.0,6.0,60,0.00,,,0.02,,2013-05-23 17:43:00,
2013-05-23 13:53:00,88.0,71.0,30.01,West,278,6.0,9.0,57,0.00,,,0.02,,2013-05-23 17:53:00,
2013-05-23 14:01:00,88.0,71.0,30.01,WNW,302,4.0,10.0,57,0.00,,,0.02,,2013-05-23 18:01:00,
2013-05-23 14:11:00,88.0,71.0,30.01,WNW,302,4.0,10.0,57,0.00,,,0.02,,2013-05-23 18:11:00,
2013-05-23 14:22:00,89.0,70.0,30.00,West,276,7.0,12.0,53,0.00,,,0.00,,2013-05-23 18:22:00,
2013-05-23 14:32:00,89.0,71.0,30.00,WSW,246,1.0,7.0,55,0.00,,,0.00,,2013-05-23 18:32:00,
2013-05-23 14:42:00,89.0,71.0,30.00,WSW,246,1.0,7.0,55,0.00,,,0.00,,2013-05-23 18:42:00,
2013-05-23 14:52:00,89.0,67.0,30.00,WSW,247,7.0,12.0,48,0.00,,,0.00,,2013-05-23 18:52:00,
2013-05-23 15:01:00,90.0,68.0,29.99,West,267,4.0,9.0,49,0.00,,,0.00,,2013-05-23 19:01:00,
2013-05-23 15:11:00,90.0,68.0,29.99,West,267,4.0,9.0,49,0.00,,,0.00,,2013-05-23 19:11:00,
2013-05-23 15:21:00,90.0,69.0,29.98,North,353,2.0,8.0,51,0.00,,,0.00,,2013-05-23 19:21:00,
2013-05-23 15:32:00,90.0,68.0,29.98,West,276,1.0,9.0,49,0.00,,,0.00,,2013-05-23 19:32:00,
2013-05-23 15:42:00,92.0,68.0,29.97,WSW,253,1.0,5.0,46,0.00,,,0.00,,2013-05-23 19:42:00,
2013-05-23 15:52:00,92.0,68.0,29.97,WSW,253,1.0,5.0,46,0.00,,,0.00,,2013-05-23 19:52:00,
2013-05-23 16:02:00,91.0,70.0,29.96,WSW,249,1.0,7.0,50,0.00,,,0.00,,2013-05-23 20:02:00,
2013-05-23 16:11:00,91.0,70.0,29.96,WSW,249,1.0,7.0,50,0.00,,,0.00,,2013-05-23 20:11:00,
2013-05-23 16:21:00,91.0,70.0,29.96,NNW,330,2.0,9.0,51,0.00,,,0.00,,2013-05-23 20:21:00,
2013-05-23 16:32:00,91.0,69.0,29.96,WNW,283,2.0,6.0,49,0.00,,,0.00,,2013-05-23 20:32:00,
2013-05-23 16:42:00,91.0,69.0,29.96,WNW,283,2.0,6.0,49,0.00,,,0.00,,2013-05-23 20:42:00,
2013-05-23 16:52:00,93.0,71.0,29.96,NE,43,1.0,3.0,49,0.00,,,0.00,,2013-05-23 20:52:00,
2013-05-23 17:01:00,92.0,69.0,29.96,WSW,256,1.0,4.0,47,0.00,,,0.00,,2013-05-23 21:01:00,
2013-05-23 17:11:00,92.0,69.0,29.96,WSW,256,1.0,4.0,47,0.00,,,0.00,,2013-05-23 21:11:00,
2013-05-23 17:22:00,92.0,69.0,29.96,West,264,2.0,5.0,48,0.00,,,0.00,,2013-05-23 21:22:00,
2013-05-23 17:32:00,92.0,71.0,29.95,NNE,15,1.0,6.0,50,0.00,,,0.00,,2013-05-23 21:32:00,
2013-05-23 17:43:00,92.0,71.0,29.95,NNE,15,1.0,6.0,50,0.00,,,0.00,,2013-05-23 21:43:00,
2013-05-23 17:53:00,92.0,71.0,29.95,East,90,0.0,3.0,50,0.00,,,0.00,,2013-05-23 21:53:00,
2013-05-23 18:03:00,91.0,74.0,29.96,East,86,2.0,9.0,58,0.00,,,0.00,,2013-05-23 22:03:00,
2013-05-23 18:12:00,91.0,74.0,29.96,East,86,2.0,9.0,58,0.00,,,0.00,,2013-05-23 22:12:00,
2013-05-23 18:22:00,90.0,74.0,29.96,East,98,3.0,7.0,60,0.00,,,0.00,,2013-05-23 22:22:00,
2013-05-23 18:33:00,88.0,74.0,29.97,ENE,69,2.0,9.0,64,0.00,,,0.00,,2013-05-23 22:33:00,
2013-05-23 18:42:00,88.0,74.0,29.97,ENE,69,2.0,9.0,64,0.00,,,0.00,,2013-05-23 22:42:00,
2013-05-23 18:52:00,87.0,74.0,29.96,East,84,1.0,5.0,66,0.00,,,0.00,,2013-05-23 22:52:00,
2013-05-23 19:02:00,86.0,74.0,29.97,East,94,1.0,6.0,67,0.00,,,0.00,,2013-05-23 23:02:00,
2013-05-23 19:11:00,86.0,74.0,29.97,ESE,105,1.0,7.0,68,0.00,,,0.00,,2013-05-23 23:11:00,
2013-05-23 19:21:00,86.0,74.0,29.97,ESE,105,1.0,7.0,68,0.00,,,0.00,,2013-05-23 23:21:00,
2013-05-23 19:32:00,85.0,73.0,29.97,ESE,112,1.0,7.0,68,0.00,,,0.00,,2013-05-23 23:32:00,
2013-05-23 19:42:00,85.0,73.0,29.97,ESE,112,1.0,7.0,68,0.00,,,0.00,,2013-05-23 23:42:00,
2013-05-23 19:52:00,86.0,73.0,29.98,ESE,105,2.0,5.0,65,0.00,,,0.00,,2013-05-23 23:52:00,
2013-05-23 20:01:00,85.0,73.0,29.97,SE,138,1.0,4.0,68,0.00,,,0.00,,2013-05-24 00:01:00,
2013-05-23 20:12:00,85.0,73.0,29.97,SE,138,1.0,4.0,68,0.00,,,0.00,,2013-05-24 00:12:00,
2013-05-23 20:21:00,84.0,74.0,29.98,ESE,117,1.0,4.0,72,0.00,,,0.00,,2013-05-24 00:21:00,
2013-05-23 20:32:00,83.0,74.0,29.98,SE,125,0.0,4.0,75,0.00,,,0.00,,2013-05-24 00:32:00,
2013-05-23 20:42:00,83.0,74.0,29.98,SE,125,0.0,4.0,75,0.00,,,0.00,,2013-05-24 00:42:00,
2013-05-23 20:52:00,83.0,75.0,29.99,East,93,1.0,3.0,76,0.00,,,0.00,,2013-05-24 00:52:00,
2013-05-23 21:01:00,82.0,74.0,29.99,ESE,111,1.0,3.0,76,0.00,,,0.00,,2013-05-24 01:01:00,
2013-05-23 21:12:00,82.0,74.0,29.99,ESE,111,1.0,3.0,76,0.00,,,0.00,,2013-05-24 01:12:00,
2013-05-23 21:22:00,82.0,74.0,30.00,SE,146,0.0,3.0,77,0.00,,,0.00,,2013-05-24 01:22:00,
2013-05-23 21:32:00,82.0,76.0,30.00,ESE,122,0.0,4.0,81,0.00,,,0.00,,2013-05-24 01:32:00,
2013-05-23 21:42:00,82.0,76.0,30.00,ESE,122,0.0,4.0,81,0.00,,,0.00,,2013-05-24 01:42:00,
2013-05-23 21:52:00,82.0,76.0,30.00,SE,124,1.0,4.0,83,0.00,,,0.00,,2013-05-24 01:52:00,
2013-05-23 22:02:00,82.0,77.0,30.00,ESE,122,0.0,2.0,84,0.00,,,0.00,,2013-05-24 02:02:00,
2013-05-23 22:12:00,82.0,77.0,30.00,ESE,122,0.0,2.0,84,0.00,,,0.00,,2013-05-24 02:12:00,
2013-05-23 22:22:00,81.0,76.0,30.00,SE,139,0.0,2.0,85,0.00,,,0.00,,2013-05-24 02:22:00,
2013-05-23 22:32:00,81.0,76.0,30.01,East,96,0.0,2.0,85,0.00,,,0.00,,2013-05-24 02:32:00,
2013-05-23 22:42:00,81.0,76.0,30.01,East,96,0.0,2.0,85,0.00,,,0.00,,2013-05-24 02:42:00,
2013-05-23 22:52:00,81.0,76.0,30.01,East,96,0.0,2.0,85,0.00,,,0.00,,2013-05-24 02:52:00,
2013-05-23 23:02:00,81.0,76.0,30.01,East,86,0.0,2.0,86,0.00,,,0.00,,2013-05-24 03:02:00,
2013-05-23 23:11:00,81.0,77.0,30.02,East,86,0.0,0.0,87,0.00,,,0.00,,2013-05-24 03:11:00,
2013-05-23 23:22:00,81.0,77.0,30.02,East,86,0.0,0.0,87,0.00,,,0.00,,2013-05-24 03:22:00,
2013-05-23 23:33:00,80.0,76.0,30.02,East,86,0.0,0.0,88,0.00,,,0.00,,2013-05-24 03:33:00,
2013-05-23 23:42:00,80.0,76.0,30.02,East,86,0.0,0.0,88,0.00,,,0.00,,2013-05-24 03:42:00,
2013-05-23 23:53:00,80.0,76.0,30.02,East,86,0.0,1.0,88,0.00,,,0.00,,2013-05-24 03:53:00,